{"data":{"norad_id":55797,"epoch":"2026-09-19T16:45:39.835872Z","epoch_age_seconds":91269,"freshness":"FRESH","line1":"1 55797U 23029B   26262.69837773  .00000071  00000+0  14356-3 0  9996","line2":"2 55797  87.9133 255.6071 0002026  84.6439 275.4926 13.20773011173625","mean_motion":13.20773011,"eccentricity":0.0002026,"inclination_deg":87.9133,"raan_deg":255.6071,"arg_perigee_deg":84.6439,"mean_anomaly_deg":275.4926,"bstar":0.00014356,"rev_number":17362,"period_min":109.0270612745,"perigee_km":1180.2371641117,"apogee_km":1183.3004379423,"semimajor_km":7559.905801027,"source":"CELESTRAK","updated_at":"2026-09-20T09:00:44.758957Z"}}